CMP272 SEGU-MPTO

Flight info

Callsign CMP272
Flight time 1h 53m
Altitude 34000
Route TOLAV2 UGUPI UL780 BUXOS TORIL SIRIL3
Aircraft B738/M-SDE3FGHIRWY/S

Departure

Time 2026-04-25 20:22
Airport José Joaquín de Olmedo International Airport (SEGU)

Arrival

Time 2026-04-25 22:16
Airport Tocumen International Airport (MPTO)
Time Latitude Longitude Altitude Speed Heading
2026-04-25 19:58 -2.14762 -79.88273 27 ft 0 kts 300°
2026-04-25 20:16 -2.14765 -79.88268 27 ft 3 kts 300°
2026-04-25 20:16 -2.14774 -79.88252 27 ft 3 kts 300°
2026-04-25 20:17 -2.14784 -79.88236 27 ft 3 kts 327°
2026-04-25 20:17 -2.14791 -79.88232 27 ft 0 kts 356°
2026-04-25 20:17 -2.14792 -79.88232 27 ft 0 kts
2026-04-25 20:17 -2.14793 -79.88232 27 ft 0 kts
2026-04-25 20:18 -2.14795 -79.88232 27 ft 0 kts 18°
2026-04-25 20:18 -2.14796 -79.88232 27 ft 0 kts 19°
2026-04-25 20:19 -2.14795 -79.88232 28 ft 0 kts 19°
2026-04-25 20:19 -2.14794 -79.88231 27 ft 1 kts 19°
2026-04-25 20:19 -2.14786 -79.88224 27 ft 3 kts 47°
2026-04-25 20:20 -2.14777 -79.88191 28 ft 7 kts 86°
2026-04-25 20:20 -2.14804 -79.88130 28 ft 12 kts 121°
2026-04-25 20:20 -2.14829 -79.88040 28 ft 16 kts 62°
2026-04-25 20:20 -2.14729 -79.87972 28 ft 19 kts 31°
2026-04-25 20:21 -2.14649 -79.87883 27 ft 18 kts 75°
2026-04-25 20:21 -2.14649 -79.87768 27 ft 17 kts 134°
2026-04-25 20:21 -2.14769 -79.87805 26 ft 35 kts 211°
2026-04-25 20:21 -2.15214 -79.88061 27 ft 111 kts 209°
2026-04-25 20:22 -2.16082 -79.88558 91 ft 167 kts 210°
2026-04-25 20:22 -2.16764 -79.88943 492 ft 176 kts 208°
2026-04-25 20:22 -2.18269 -79.89753 1475 ft 190 kts 207°
2026-04-25 20:22 -2.19489 -79.90405 2102 ft 211 kts 210°
2026-04-25 20:23 -2.20557 -79.91507 2373 ft 237 kts 248°
2026-04-25 20:23 -2.20640 -79.93143 2960 ft 242 kts 289°
2026-04-25 20:23 -2.19687 -79.94561 3413 ft 259 kts 321°
2026-04-25 20:23 -2.18051 -79.95379 4085 ft 269 kts 345°
2026-04-25 20:24 -2.16181 -79.95607 4949 ft 274 kts 357°
2026-04-25 20:24 -2.14254 -79.95654 5774 ft 280 kts 358°
2026-04-25 20:24 -2.12288 -79.95679 6602 ft 285 kts 358°
2026-04-25 20:24 -2.10301 -79.95715 7452 ft 287 kts 358°
2026-04-25 20:25 -2.08284 -79.95764 8238 ft 292 kts 358°
2026-04-25 20:25 -2.06243 -79.95828 9021 ft 296 kts 357°
2026-04-25 20:25 -2.04172 -79.95902 9804 ft 299 kts 357°
2026-04-25 20:25 -2.02090 -79.95928 10338 ft 312 kts
2026-04-25 20:26 -1.99827 -79.95884 10545 ft 334 kts
2026-04-25 20:26 -1.97451 -79.95868 10998 ft 346 kts 359°
2026-04-25 20:26 -1.95031 -79.95887 11878 ft 347 kts 359°
2026-04-25 20:26 -1.92609 -79.95941 12646 ft 350 kts 358°
2026-04-25 20:27 -1.90130 -79.96044 13334 ft 354 kts 357°
2026-04-25 20:27 -1.87693 -79.96167 14006 ft 357 kts 357°
2026-04-25 20:27 -1.85201 -79.96295 14643 ft 360 kts 357°
2026-04-25 20:27 -1.82672 -79.96447 15233 ft 367 kts 356°
2026-04-25 20:28 -1.80119 -79.96613 15894 ft 369 kts 356°
2026-04-25 20:28 -1.77540 -79.96761 16509 ft 373 kts 357°
2026-04-25 20:28 -1.74940 -79.96904 17136 ft 376 kts 357°
2026-04-25 20:28 -1.72320 -79.97046 17759 ft 378 kts 357°
2026-04-25 20:29 -1.69686 -79.97192 18388 ft 380 kts 357°
2026-04-25 20:29 -1.67042 -79.97340 18966 ft 383 kts 357°
2026-04-25 20:29 -1.64371 -79.97490 19527 ft 386 kts 357°
2026-04-25 20:29 -1.61679 -79.97643 20058 ft 389 kts 357°
2026-04-25 20:30 -1.58971 -79.97796 20594 ft 392 kts 358°
2026-04-25 20:30 -1.56243 -79.97951 21110 ft 394 kts 358°
2026-04-25 20:30 -1.53492 -79.98107 21632 ft 397 kts 358°
2026-04-25 20:30 -1.50730 -79.98263 22095 ft 399 kts 358°
2026-04-25 20:31 -1.47944 -79.98421 22557 ft 402 kts 358°
2026-04-25 20:31 -1.45139 -79.98567 23008 ft 405 kts 359°
2026-04-25 20:31 -1.42314 -79.98650 23455 ft 407 kts
2026-04-25 20:31 -1.39480 -79.98702 23888 ft 409 kts
2026-04-25 20:32 -1.36627 -79.98745 24304 ft 411 kts
2026-04-25 20:32 -1.33755 -79.98790 24696 ft 414 kts
2026-04-25 20:32 -1.30858 -79.98839 25078 ft 417 kts
2026-04-25 20:32 -1.27953 -79.98894 25449 ft 420 kts
2026-04-25 20:33 -1.25017 -79.98953 25825 ft 422 kts
2026-04-25 20:33 -1.22075 -79.99014 26184 ft 424 kts
2026-04-25 20:33 -1.19114 -79.99075 26536 ft 427 kts
2026-04-25 20:33 -1.17142 -79.99117 26755 ft 429 kts
2026-04-25 20:34 -1.13137 -79.99202 27198 ft 432 kts
2026-04-25 20:34 -1.10116 -79.99267 27547 ft 435 kts
2026-04-25 20:34 -1.07084 -79.99332 27902 ft 436 kts
2026-04-25 20:34 -1.04043 -79.99396 28212 ft 439 kts
2026-04-25 20:35 -1.00977 -79.99460 28506 ft 442 kts
2026-04-25 20:35 -0.97900 -79.99524 28805 ft 444 kts
2026-04-25 20:35 -0.94804 -79.99589 29105 ft 446 kts
2026-04-25 20:35 -0.91693 -79.99656 29409 ft 448 kts
2026-04-25 20:36 -0.88572 -79.99720 29701 ft 450 kts
2026-04-25 20:36 -0.85434 -79.99785 29943 ft 453 kts
2026-04-25 20:36 -0.82274 -79.99852 30207 ft 454 kts
2026-04-25 20:36 -0.79107 -79.99919 30501 ft 456 kts
2026-04-25 20:37 -0.75931 -79.99987 30756 ft 458 kts
2026-04-25 20:37 -0.72744 -80.00054 30985 ft 460 kts
2026-04-25 20:37 -0.69534 -80.00124 31220 ft 462 kts
2026-04-25 20:37 -0.66319 -80.00193 31482 ft 463 kts
2026-04-25 20:38 -0.63097 -80.00261 31792 ft 462 kts
2026-04-25 20:38 -0.59893 -80.00333 32168 ft 460 kts
2026-04-25 20:38 -0.56687 -80.00400 32442 ft 461 kts
2026-04-25 20:38 -0.53477 -80.00507 32688 ft 462 kts
2026-04-25 20:39 -0.50279 -80.00596 33088 ft 458 kts
2026-04-25 20:39 -0.47095 -80.00646 33479 ft 456 kts
2026-04-25 20:39 -0.43927 -80.00691 33769 ft 456 kts
2026-04-25 20:39 -0.41820 -80.00724 33948 ft 457 kts
2026-04-25 20:40 -0.37573 -80.00800 34341 ft 456 kts
2026-04-25 20:40 -0.34407 -80.00863 34695 ft 454 kts
2026-04-25 20:40 -0.31251 -80.00930 35055 ft 452 kts
2026-04-25 20:40 -0.28110 -80.00997 35376 ft 451 kts
2026-04-25 20:41 -0.24974 -80.01064 35663 ft 451 kts
2026-04-25 20:41 -0.21840 -80.01131 35962 ft 449 kts
2026-04-25 20:41 -0.18717 -80.01198 36248 ft 448 kts
2026-04-25 20:41 -0.15598 -80.01263 36497 ft 448 kts
2026-04-25 20:42 -0.12526 -80.01328 36729 ft 448 kts
2026-04-25 20:42 -0.09413 -80.01393 37100 ft 445 kts
2026-04-25 20:42 -0.06334 -80.01365 37513 ft 439 kts
2026-04-25 20:42 -0.03302 -80.01092 37888 ft 435 kts
2026-04-25 20:43 0.02726 -80.00275 37950 ft 439 kts
2026-04-25 20:43 0.08762 -79.99439 37934 ft 435 kts
2026-04-25 20:44 0.14751 -79.98670 37938 ft 433 kts
2026-04-25 20:44 0.20729 -79.97941 37952 ft 432 kts
2026-04-25 20:45 0.26691 -79.97220 37941 ft 431 kts
2026-04-25 20:45 0.32653 -79.96501 37937 ft 432 kts
2026-04-25 20:46 0.38624 -79.95777 37934 ft 433 kts
2026-04-25 20:46 0.44610 -79.95053 37934 ft 435 kts
2026-04-25 20:47 0.50628 -79.94324 37924 ft 437 kts
2026-04-25 20:47 0.56670 -79.93594 37914 ft 438 kts
2026-04-25 20:48 0.62731 -79.92859 37912 ft 439 kts
2026-04-25 20:48 0.68803 -79.92127 37908 ft 440 kts
2026-04-25 20:49 0.74882 -79.91392 37898 ft 441 kts
2026-04-25 20:49 0.80974 -79.90653 37896 ft 441 kts
2026-04-25 20:50 0.87018 -79.89920 37891 ft 440 kts
2026-04-25 20:50 0.93104 -79.89186 37894 ft 440 kts
2026-04-25 20:51 0.99181 -79.88448 37888 ft 440 kts
2026-04-25 20:51 1.05258 -79.87716 37889 ft 439 kts
2026-04-25 20:52 1.09323 -79.87222 37887 ft 440 kts
2026-04-25 20:52 1.17403 -79.86241 37888 ft 439 kts
2026-04-25 20:53 1.23469 -79.85507 37888 ft 440 kts
2026-04-25 20:53 1.29544 -79.84770 37886 ft 439 kts
2026-04-25 20:54 1.35615 -79.84034 37889 ft 440 kts
2026-04-25 20:54 1.41687 -79.83304 37887 ft 439 kts
2026-04-25 20:55 1.47785 -79.82905 37898 ft 439 kts
2026-04-25 20:55 1.53893 -79.82698 37889 ft 439 kts
2026-04-25 20:56 1.59995 -79.82474 37886 ft 439 kts
2026-04-25 20:56 1.66106 -79.82220 37891 ft 439 kts
2026-04-25 20:57 1.72170 -79.81951 37889 ft 440 kts
2026-04-25 20:57 1.78276 -79.81674 37889 ft 440 kts
2026-04-25 20:58 1.84392 -79.81401 37893 ft 440 kts
2026-04-25 20:58 1.90518 -79.81128 37886 ft 441 kts
2026-04-25 20:59 1.96650 -79.80855 37878 ft 441 kts
2026-04-25 20:59 2.01750 -79.80631 37879 ft 441 kts
2026-04-25 21:00 2.06890 -79.80403 37879 ft 442 kts
2026-04-25 21:01 2.17139 -79.79950 37887 ft 441 kts
2026-04-25 21:01 2.23225 -79.79678 37882 ft 441 kts
2026-04-25 21:02 2.29356 -79.79408 37882 ft 441 kts
2026-04-25 21:02 2.35494 -79.79132 37884 ft 441 kts
2026-04-25 21:03 2.41621 -79.78865 37884 ft 440 kts
2026-04-25 21:03 2.47740 -79.78591 37874 ft 441 kts
2026-04-25 21:04 2.53872 -79.78316 37879 ft 441 kts
2026-04-25 21:04 2.60003 -79.78045 37876 ft 441 kts
2026-04-25 21:05 2.66135 -79.77771 37881 ft 441 kts
2026-04-25 21:05 2.72275 -79.77499 37877 ft 442 kts
2026-04-25 21:06 2.78426 -79.77223 37874 ft 443 kts
2026-04-25 21:06 2.84587 -79.76953 37869 ft 444 kts
2026-04-25 21:07 2.90778 -79.76678 37875 ft 447 kts
2026-04-25 21:07 2.97002 -79.76398 37864 ft 449 kts
2026-04-25 21:08 3.03252 -79.76124 37874 ft 450 kts
2026-04-25 21:08 3.09475 -79.75848 37883 ft 451 kts
2026-04-25 21:09 3.18911 -79.75428 37868 ft 453 kts
2026-04-25 21:09 3.25212 -79.75146 37864 ft 454 kts
2026-04-25 21:10 3.31518 -79.74864 37869 ft 454 kts
2026-04-25 21:10 3.37817 -79.74580 37875 ft 453 kts
2026-04-25 21:11 3.44115 -79.74301 37868 ft 452 kts
2026-04-25 21:11 3.50388 -79.74030 37863 ft 451 kts
2026-04-25 21:12 3.56644 -79.73749 37881 ft 449 kts
2026-04-25 21:12 3.61829 -79.73520 37865 ft 449 kts
2026-04-25 21:13 3.69122 -79.73200 37863 ft 449 kts
2026-04-25 21:13 3.75355 -79.72915 37864 ft 448 kts
2026-04-25 21:14 3.81584 -79.72635 37861 ft 448 kts
2026-04-25 21:14 3.87809 -79.72353 37844 ft 448 kts
2026-04-25 21:15 3.94037 -79.72078 37853 ft 449 kts
2026-04-25 21:15 4.00275 -79.71798 37852 ft 449 kts
2026-04-25 21:16 4.06517 -79.71524 37854 ft 449 kts
2026-04-25 21:16 4.12768 -79.71248 37851 ft 450 kts
2026-04-25 21:17 4.18912 -79.70974 37855 ft 451 kts
2026-04-25 21:17 4.25146 -79.70695 37852 ft 451 kts
2026-04-25 21:18 4.31458 -79.70412 37854 ft 451 kts
2026-04-25 21:18 4.37736 -79.70131 37847 ft 452 kts
2026-04-25 21:19 4.44009 -79.69851 37849 ft 451 kts
2026-04-25 21:19 4.50246 -79.69574 37854 ft 452 kts
2026-04-25 21:20 4.55502 -79.69339 37851 ft 452 kts
2026-04-25 21:20 4.62803 -79.69013 37853 ft 452 kts
2026-04-25 21:21 4.69081 -79.68733 37846 ft 452 kts
2026-04-25 21:21 4.75368 -79.68452 37832 ft 452 kts
2026-04-25 21:22 4.81649 -79.68172 37831 ft 452 kts
2026-04-25 21:22 4.87936 -79.67888 37833 ft 452 kts
2026-04-25 21:23 4.94215 -79.67610 37845 ft 452 kts
2026-04-25 21:23 5.00496 -79.67330 37841 ft 452 kts
2026-04-25 21:24 5.06778 -79.67048 37843 ft 452 kts
2026-04-25 21:24 5.13066 -79.66767 37844 ft 452 kts
2026-04-25 21:25 5.19355 -79.66494 37835 ft 452 kts
2026-04-25 21:25 5.25650 -79.66257 37844 ft 453 kts
2026-04-25 21:26 5.31941 -79.66030 37841 ft 453 kts
2026-04-25 21:26 5.38248 -79.65798 37842 ft 454 kts
2026-04-25 21:27 5.44563 -79.65563 37847 ft 454 kts
2026-04-25 21:27 5.50877 -79.65326 37842 ft 455 kts
2026-04-25 21:28 5.57207 -79.65088 37844 ft 455 kts
2026-04-25 21:28 5.63538 -79.64853 37850 ft 455 kts
2026-04-25 21:29 5.69872 -79.64616 37838 ft 456 kts
2026-04-25 21:29 5.76216 -79.64377 37838 ft 456 kts
2026-04-25 21:30 5.82548 -79.64140 37832 ft 456 kts
2026-04-25 21:30 5.87820 -79.63943 37832 ft 456 kts
2026-04-25 21:31 5.95189 -79.63668 37833 ft 456 kts
2026-04-25 21:31 6.01528 -79.63431 37833 ft 455 kts
2026-04-25 21:32 6.07857 -79.63193 37833 ft 455 kts
2026-04-25 21:32 6.14187 -79.62955 37833 ft 455 kts
2026-04-25 21:33 6.20512 -79.62717 37833 ft 455 kts
2026-04-25 21:33 6.26831 -79.62479 37842 ft 454 kts
2026-04-25 21:34 6.33148 -79.62244 37842 ft 455 kts
2026-04-25 21:34 6.39468 -79.62007 37843 ft 454 kts
2026-04-25 21:35 6.45804 -79.61769 37551 ft 459 kts
2026-04-25 21:35 6.48995 -79.61649 37199 ft 456 kts
2026-04-25 21:35 6.52149 -79.61531 36782 ft 452 kts
2026-04-25 21:36 6.55279 -79.61414 36393 ft 448 kts
2026-04-25 21:36 6.58380 -79.61298 36009 ft 444 kts
2026-04-25 21:36 6.61462 -79.61182 35609 ft 441 kts
2026-04-25 21:36 6.64518 -79.61067 35208 ft 438 kts
2026-04-25 21:37 6.67559 -79.60953 34811 ft 435 kts
2026-04-25 21:37 6.68536 -79.60916 34684 ft 435 kts
2026-04-25 21:37 6.73575 -79.60726 34028 ft 430 kts
2026-04-25 21:37 6.76560 -79.60614 33641 ft 428 kts
2026-04-25 21:38 6.79522 -79.60503 33248 ft 425 kts
2026-04-25 21:38 6.82470 -79.60393 32868 ft 423 kts
2026-04-25 21:38 6.85397 -79.60282 32489 ft 420 kts
2026-04-25 21:38 6.88318 -79.60172 32105 ft 418 kts
2026-04-25 21:39 6.91214 -79.60063 31724 ft 416 kts
2026-04-25 21:39 6.94092 -79.59955 31345 ft 413 kts
2026-04-25 21:39 6.96961 -79.59847 30968 ft 411 kts
2026-04-25 21:39 6.99772 -79.59741 30595 ft 408 kts
2026-04-25 21:40 7.02606 -79.59635 30229 ft 406 kts
2026-04-25 21:40 7.05422 -79.59529 29866 ft 404 kts
2026-04-25 21:40 7.08220 -79.59424 29491 ft 401 kts
2026-04-25 21:40 7.11001 -79.59319 29112 ft 399 kts
2026-04-25 21:41 7.13765 -79.59214 28726 ft 396 kts
2026-04-25 21:41 7.16516 -79.59111 28341 ft 394 kts
2026-04-25 21:41 7.19281 -79.59007 27953 ft 392 kts
2026-04-25 21:41 7.21958 -79.58906 27572 ft 389 kts
2026-04-25 21:42 7.24657 -79.58805 27192 ft 387 kts
2026-04-25 21:42 7.27340 -79.58704 26812 ft 385 kts
2026-04-25 21:42 7.30009 -79.58605 26433 ft 382 kts
2026-04-25 21:42 7.32656 -79.58505 26048 ft 380 kts
2026-04-25 21:43 7.35292 -79.58405 25679 ft 378 kts
2026-04-25 21:43 7.37858 -79.58308 25316 ft 375 kts
2026-04-25 21:43 7.40461 -79.58209 24943 ft 373 kts
2026-04-25 21:43 7.43048 -79.58111 24567 ft 371 kts
2026-04-25 21:44 7.45619 -79.58014 24201 ft 369 kts
2026-04-25 21:44 7.48177 -79.57918 23835 ft 366 kts
2026-04-25 21:44 7.53238 -79.57727 23102 ft 362 kts
2026-04-25 21:45 7.55745 -79.57632 22737 ft 360 kts
2026-04-25 21:45 7.56561 -79.57601 22628 ft 360 kts
2026-04-25 21:45 7.60732 -79.57440 22003 ft 356 kts
2026-04-25 21:45 7.63204 -79.57345 21641 ft 354 kts
2026-04-25 21:46 7.64831 -79.57284 21404 ft 353 kts
2026-04-25 21:46 7.67279 -79.57193 21049 ft 350 kts
2026-04-25 21:46 7.69696 -79.57109 20711 ft 346 kts
2026-04-25 21:46 7.72090 -79.57021 20340 ft 343 kts
2026-04-25 21:47 7.74485 -79.56948 20001 ft 343 kts 358°
2026-04-25 21:47 7.77644 -79.56929 19531 ft 342 kts
2026-04-25 21:47 7.80016 -79.56808 19178 ft 340 kts
2026-04-25 21:47 7.81602 -79.56722 18945 ft 338 kts
2026-04-25 21:48 7.83951 -79.56603 18599 ft 336 kts
2026-04-25 21:48 7.86280 -79.56497 18273 ft 334 kts
2026-04-25 21:48 7.88583 -79.56400 18026 ft 329 kts
2026-04-25 21:48 7.90866 -79.56310 17699 ft 327 kts
2026-04-25 21:49 7.93135 -79.56223 17381 ft 325 kts
2026-04-25 21:49 7.95386 -79.56136 17054 ft 324 kts
2026-04-25 21:49 7.97635 -79.56050 16736 ft 322 kts
2026-04-25 21:49 7.99876 -79.55962 16417 ft 321 kts
2026-04-25 21:50 8.02092 -79.55897 16080 ft 317 kts
2026-04-25 21:50 8.04275 -79.55783 15748 ft 318 kts
2026-04-25 21:50 8.06518 -79.55719 15400 ft 318 kts
2026-04-25 21:50 8.08694 -79.55646 15100 ft 316 kts
2026-04-25 21:51 8.10867 -79.55601 14759 ft 314 kts 360°
2026-04-25 21:51 8.13048 -79.55574 14439 ft 313 kts 360°
2026-04-25 21:51 8.15219 -79.55551 14120 ft 311 kts 360°
2026-04-25 21:51 8.17375 -79.55528 13799 ft 309 kts 360°
2026-04-25 21:52 8.19522 -79.55504 13485 ft 308 kts 360°
2026-04-25 21:52 8.21660 -79.55478 13167 ft 306 kts 360°
2026-04-25 21:52 8.23780 -79.55453 12852 ft 305 kts 360°
2026-04-25 21:52 8.25885 -79.55428 12545 ft 300 kts 360°
2026-04-25 21:53 8.27982 -79.55392 12225 ft 303 kts
2026-04-25 21:53 8.30083 -79.55360 11910 ft 301 kts 360°
2026-04-25 21:53 8.32172 -79.55338 11595 ft 300 kts 360°
2026-04-25 21:53 8.34251 -79.55315 11291 ft 298 kts 360°
2026-04-25 21:54 8.36320 -79.55292 10973 ft 296 kts 360°
2026-04-25 21:54 8.38393 -79.55267 10657 ft 298 kts
2026-04-25 21:54 8.40455 -79.55238 10336 ft 296 kts 360°
2026-04-25 21:54 8.42504 -79.55216 10094 ft 292 kts 360°
2026-04-25 21:55 8.44510 -79.55191 9917 ft 289 kts 360°
2026-04-25 21:55 8.46536 -79.55198 9613 ft 292 kts 359°
2026-04-25 21:55 8.48562 -79.55171 9325 ft 290 kts
2026-04-25 21:55 8.50575 -79.55116 9025 ft 288 kts
2026-04-25 21:56 8.52577 -79.55088 8707 ft 287 kts 359°
2026-04-25 21:56 8.53887 -79.55065 8501 ft 283 kts
2026-04-25 21:56 8.56474 -79.55295 8161 ft 277 kts 339°
2026-04-25 21:56 8.58179 -79.56112 8071 ft 268 kts 331°
2026-04-25 21:57 8.59782 -79.57014 7990 ft 259 kts 330°
2026-04-25 21:57 8.61345 -79.57909 7721 ft 261 kts 330°
2026-04-25 21:57 8.62926 -79.58819 7482 ft 262 kts 330°
2026-04-25 21:57 8.64511 -79.59709 7263 ft 261 kts 332°
2026-04-25 21:58 8.66087 -79.60619 7080 ft 262 kts 329°
2026-04-25 21:58 8.67676 -79.61533 6879 ft 262 kts 334°
2026-04-25 21:58 8.69421 -79.62029 6715 ft 261 kts 356°
2026-04-25 21:58 8.71188 -79.61723 6421 ft 259 kts 28°
2026-04-25 21:59 8.72671 -79.60690 6104 ft 260 kts 36°
2026-04-25 21:59 8.74117 -79.59589 5842 ft 260 kts 36°
2026-04-25 21:59 8.75543 -79.58511 5605 ft 258 kts 36°
2026-04-25 22:00 8.78441 -79.56372 5200 ft 254 kts 35°
2026-04-25 22:00 8.79849 -79.55303 4913 ft 259 kts 38°
2026-04-25 22:00 8.81297 -79.54241 4837 ft 255 kts 37°
2026-04-25 22:00 8.82694 -79.53135 4654 ft 253 kts 38°
2026-04-25 22:01 8.84085 -79.52049 4366 ft 253 kts 37°
2026-04-25 22:01 8.85477 -79.50963 4171 ft 252 kts 38°
2026-04-25 22:01 8.86840 -79.49897 4089 ft 242 kts 38°
2026-04-25 22:01 8.87707 -79.49211 4030 ft 235 kts 36°
2026-04-25 22:02 8.89442 -79.47933 3773 ft 226 kts 32°
2026-04-25 22:02 8.90819 -79.47203 3440 ft 223 kts 26°
2026-04-25 22:02 8.92148 -79.46423 3118 ft 219 kts 31°
2026-04-25 22:02 8.93497 -79.45674 2770 ft 220 kts 28°
2026-04-25 22:03 8.94824 -79.44926 2494 ft 218 kts 29°
2026-04-25 22:03 8.96131 -79.44178 2338 ft 209 kts 30°
2026-04-25 22:03 8.97360 -79.43465 2164 ft 201 kts 30°
2026-04-25 22:03 8.98568 -79.42769 1900 ft 198 kts 30°
2026-04-25 22:04 8.99731 -79.42110 1803 ft 187 kts 29°
2026-04-25 22:04 9.00852 -79.41485 1734 ft 191 kts 30°
2026-04-25 22:04 9.02053 -79.40778 1409 ft 196 kts 32°
2026-04-25 22:04 9.03161 -79.40145 1136 ft 184 kts 31°
2026-04-25 22:05 9.04293 -79.39558 1103 ft 162 kts 27°
2026-04-25 22:05 9.05270 -79.39022 1163 ft 175 kts 31°
2026-04-25 22:05 9.06243 -79.38103 1457 ft 211 kts 67°
2026-04-25 22:05 9.06363 -79.36622 2113 ft 217 kts 104°
2026-04-25 22:06 9.05755 -79.35218 2761 ft 221 kts 126°
2026-04-25 22:06 9.04729 -79.34046 3059 ft 224 kts 134°
2026-04-25 22:06 9.03615 -79.32940 3089 ft 224 kts 136°
2026-04-25 22:06 9.02494 -79.31831 3094 ft 227 kts 134°
2026-04-25 22:07 9.01387 -79.30692 3084 ft 227 kts 134°
2026-04-25 22:07 9.00653 -79.29930 3082 ft 230 kts 134°
2026-04-25 22:07 8.98946 -79.28586 3113 ft 254 kts 163°
2026-04-25 22:07 8.97146 -79.28560 3108 ft 266 kts 198°
2026-04-25 22:08 8.95608 -79.29538 3117 ft 259 kts 222°
2026-04-25 22:08 8.94303 -79.30743 3097 ft 250 kts 222°
2026-04-25 22:08 8.93015 -79.31907 3094 ft 248 kts 221°
2026-04-25 22:08 8.91714 -79.33039 3107 ft 246 kts 220°
2026-04-25 22:09 8.90400 -79.34147 3139 ft 249 kts 219°
2026-04-25 22:09 8.89011 -79.35297 3410 ft 266 kts 219°
2026-04-25 22:09 8.87546 -79.36502 3480 ft 274 kts 219°
2026-04-25 22:09 8.86087 -79.37717 3500 ft 270 kts 224°
2026-04-25 22:10 8.85108 -79.39259 3497 ft 258 kts 253°
2026-04-25 22:10 8.84980 -79.41017 3391 ft 249 kts 278°
2026-04-25 22:10 8.85506 -79.42641 3201 ft 247 kts 298°
2026-04-25 22:10 8.86380 -79.44118 3139 ft 241 kts 302°
2026-04-25 22:11 8.87263 -79.45513 3098 ft 230 kts 302°
2026-04-25 22:11 8.88201 -79.46785 3085 ft 222 kts 320°
2026-04-25 22:11 8.89562 -79.47297 3106 ft 205 kts
2026-04-25 22:11 8.90847 -79.46866 3079 ft 190 kts 26°
2026-04-25 22:12 8.92018 -79.46294 2869 ft 184 kts 26°
2026-04-25 22:12 8.93167 -79.45743 2618 ft 181 kts 26°
2026-04-25 22:12 8.94284 -79.45180 2392 ft 178 kts 28°
2026-04-25 22:12 8.95016 -79.44781 2241 ft 177 kts 29°
2026-04-25 22:13 8.96430 -79.43983 1921 ft 171 kts 30°
2026-04-25 22:13 8.97442 -79.43409 1689 ft 162 kts 30°
2026-04-25 22:13 8.98399 -79.42866 1515 ft 159 kts 30°
2026-04-25 22:13 8.99376 -79.42311 1289 ft 161 kts 31°
2026-04-25 22:14 9.00344 -79.41762 1072 ft 156 kts 31°
2026-04-25 22:14 9.01276 -79.41234 841 ft 152 kts 31°
2026-04-25 22:14 9.02202 -79.40724 631 ft 152 kts 29°
2026-04-25 22:14 9.03120 -79.40206 435 ft 149 kts 31°
2026-04-25 22:15 9.04016 -79.39689 259 ft 148 kts 31°
2026-04-25 22:15 9.04911 -79.39180 68 ft 146 kts 30°
2026-04-25 22:15 9.05714 -79.38715 46 ft 113 kts 30°
2026-04-25 22:16 9.06370 -79.38388 44 ft 34 kts
2026-04-25 22:16 9.06546 -79.38389 47 ft 19 kts 358°
2026-04-25 22:16 9.06646 -79.38446 49 ft 19 kts 265°
2026-04-25 22:16 9.06546 -79.38519 49 ft 18 kts 209°
2026-04-25 22:17 9.06440 -79.38580 49 ft 17 kts 210°
2026-04-25 22:17 9.06337 -79.38640 47 ft 17 kts 210°
2026-04-25 22:17 9.06238 -79.38697 47 ft 16 kts 209°
2026-04-25 22:17 9.06142 -79.38751 47 ft 15 kts 209°
2026-04-25 22:18 9.06064 -79.38809 45 ft 13 kts 250°
2026-04-25 22:18 9.06092 -79.38883 45 ft 11 kts 297°
2026-04-25 22:18 9.06103 -79.38951 47 ft 10 kts 241°
2026-04-25 22:18 9.06062 -79.39005 48 ft 9 kts 242°
2026-04-25 22:19 9.06085 -79.39053 48 ft 8 kts 309°
2026-04-25 22:19 9.06096 -79.39067 48 ft 0 kts 308°